GW6509 Weather Reports


time (UTC)temp
C
wind
direction
speed
KPH
gust
KPH
rain 1hr
cm
rain 24hr
cm
rain mn
cm
humidity
%
barometer
mb
20260510230943 20 329 3.2 4.8 0.00 0.00 0.00 26 1021.4
20260510230438 20 6 1.6 3.2 0.00 0.00 0.00 26 1021.5
20260510225936 20 20 1.6 3.2 0.00 0.00 0.00 27 1021.5
20260510225432 20 50 0.0 1.6 0.00 0.00 0.00 29 1021.6
20260510224927 20 9 1.6 1.6 0.00 0.00 0.00 28 1021.8
20260510224424 20 7 0.0 1.6 0.00 0.00 0.00 26 1021.5
20260510223921 20 4 1.6 3.2 0.00 0.00 0.00 29 1021.4
20260510223418 20 286 4.8 11.3 0.00 0.00 0.00 28 1021.5
20260510222915 20 325 0.0 1.6 0.00 0.00 0.00 27 1021.4
20260510222413 20 31 0.0 1.6 0.00 0.00 0.00 29 1021.3
20260510221908 20 325 0.0 1.6 0.00 0.00 0.00 27 1021.5
20260510221405 20 341 3.2 4.8 0.00 0.00 0.00 26 1021.7
20260510220901 21 341 0.0 1.6 0.00 0.00 0.00 26 1021.5
20260510220357 21 4 0.0 1.6 0.00 0.00 0.00 27 1021.5
20260510215854 21 35 1.6 1.6 0.00 0.00 0.00 25 1021.4
20260510215351 20 6 1.6 1.6 0.00 0.00 0.00 26 1021.5
20260510214848 20 288 1.6 3.2 0.00 0.00 0.00 27 1021.4
20260510214346 21 334 6.4 9.7 0.00 0.00 0.00 25 1021.3
20260510213843 21 336 3.2 4.8 0.00 0.00 0.00 25 1021.3
20260510213339 21 32 0.0 1.6 0.00 0.00 0.00 26 1021.4
20260510212835 21 25 1.6 1.6 0.00 0.00 0.00 27 1021.4
20260510212333 21 346 1.6 1.6 0.00 0.00 0.00 26 1021.4
20260510211829 20 106 3.2 4.8 0.00 0.00 0.00 25 1021.2
20260510211325 20 141 1.6 1.6 0.00 0.00 0.00 26 1021.4
20260510210821 20 313 3.2 4.8 0.00 0.00 0.00 25 1021.5
20260510210316 20 52 4.8 4.8 0.00 0.00 0.00 27 1021.4
20260510205815 20 336 3.2 3.2 0.00 0.00 0.00 27 1021.4
20260510205311 20 323 3.2 3.2 0.00 0.00 0.00 28 1021.4
20260510204807 21 35 1.6 3.2 0.00 0.00 0.00 27 1021.6
20260510204304 20 60 3.2 3.2 0.00 0.00 0.00 29 1021.7
20260510203801 20 342 3.2 4.8 0.00 0.00 0.00 29 1021.6
20260510203259 20 111 3.2 4.8 0.00 0.00 0.00 29 1021.8
20260510202758 20 9 1.6 1.6 0.00 0.00 0.00 27 1021.7
20260510202254 20 338 0.0 0.0 0.00 0.00 0.00 27 1021.9
20260510201751 20 47 1.6 3.2 0.00 0.00 0.00 28 1021.9
20260510201248 20 349 0.0 1.6 0.00 0.00 0.00 26 1021.8
20260510200744 20 341 0.0 0.0 0.00 0.00 0.00 28 1021.9
20260510200242 20 3 1.6 3.2 0.00 0.00 0.00 30 1021.8
20260510195738 19 322 4.8 9.7 0.00 0.00 0.00 29 1021.7
20260510195235 20 275 3.2 4.8 0.00 0.00 0.00 27 1022.1
20260510194734 19 354 0.0 0.0 0.00 0.00 0.00 30 1022.1
20260510194232 19 32 1.6 3.2 0.00 0.00 0.00 28 1022.1
20260510193727 19 322 4.8 6.4 0.00 0.00 0.00 26 1022.3
20260510193222 19 6 0.0 0.0 0.00 0.00 0.00 27 1022.4
20260510192718 19 299 1.6 1.6 0.00 0.00 0.00 28 1022.2
20260510192213 18 353 3.2 4.8 0.00 0.00 0.00 29 1022.3
20260510191710 19 43 4.8 6.4 0.00 0.00 0.00 29 1022.3
20260510191206 19 343 3.2 3.2 0.00 0.00 0.00 28 1022.4
20260510190704 19 341 1.6 3.2 0.00 0.00 0.00 31 1022.3
20260510190201 19 322 4.8 11.3 0.00 0.00 0.00 28 1022.3
20260510185658 20 318 4.8 9.7 0.00 0.00 0.00 28 1022.2
20260510185156 20 347 4.8 6.4 0.00 0.00 0.00 28 1022.0
20260510184652 19 14 0.0 1.6 0.00 0.00 0.00 29 1022.0
20260510184148 18 300 3.2 3.2 0.00 0.00 0.00 29 1022.1
20260510183645 18 333 4.8 4.8 0.00 0.00 0.00 29 1021.8
20260510183139 18 346 1.6 1.6 0.00 0.00 0.00 30 1022.1
20260510182636 18 279 1.6 3.2 0.00 0.00 0.00 31 1022.1
20260510182131 19 326 3.2 4.8 0.00 0.00 0.00 28 1021.9
20260510181629 18 1 0.0 0.0 0.00 0.00 0.00 29 1022.3
20260510181125 19 81 1.6 3.2 0.00 0.00 0.00 28 1022.0
20260510180621 19 53 1.6 1.6 0.00 0.00 0.00 28 1022.3
20260510180119 19 345 0.0 1.6 0.00 0.00 0.00 28 1022.4
20260510175614 18 331 1.6 1.6 0.00 0.00 0.00 26 1022.6
20260510175110 19 46 1.6 1.6 0.00 0.00 0.00 28 1022.5
20260510174608 19 269 3.2 3.2 0.00 0.00 0.00 28 1022.0
20260510174106 19 51 1.6 3.2 0.00 0.00 0.00 26 1022.2
20260510173601 19 359 0.0 0.0 0.00 0.00 0.00 25 1022.0
20260510173058 19 342 0.0 1.6 0.00 0.00 0.00 27 1022.3
20260510172553 19 314 3.2 3.2 0.00 0.00 0.00 25 1022.4
20260510172050 20 87 3.2 4.8 0.00 0.00 0.00 25 1022.1
20260510171547 20 329 1.6 1.6 0.00 0.00 0.00 27 1022.3
20260510171044 20 65 1.6 1.6 0.00 0.00 0.00 27 1022.2
20260510170540 20 84 3.2 3.2 0.00 0.00 0.00 27 1022.2
20260510170037 19 18 3.2 3.2 0.00 0.00 0.00 28 1022.3
20260510165532 18 71 3.2 3.2 0.00 0.00 0.00 28 1022.3
20260510165029 19 17 4.8 6.4 0.00 0.00 0.00 27 1022.2
20260510164526 18 56 1.6 3.2 0.00 0.00 0.00 28 1021.9
20260510164023 17 79 8.0 11.3 0.00 0.00 0.00 29 1021.9
20260510163518 17 71 3.2 3.2 0.00 0.00 0.00 30 1022.0
20260510163014 17 68 1.6 1.6 0.00 0.00 0.00 31 1022.2
20260510162510 18 290 4.8 6.4 0.00 0.00 0.00 28 1021.8
20260510162007 18 64 0.0 1.6 0.00 0.00 0.00 31 1021.9
20260510161502 18 21 3.2 3.2 0.00 0.00 0.00 31 1022.0
20260510161000 17 5 1.6 3.2 0.00 0.00 0.00 32 1021.9
20260510160457 17 302 3.2 3.2 0.00 0.00 0.00 32 1022.1
20260510155954 17 325 4.8 6.4 0.00 0.00 0.00 30 1022.0
20260510155452 17 324 1.6 1.6 0.00 0.00 0.00 31 1022.0
20260510154949 17 14 0.0 0.0 0.00 0.00 0.00 31 1021.9
20260510154445 17 38 1.6 3.2 0.00 0.00 0.00 30 1022.1
20260510153943 17 346 1.6 1.6 0.00 0.00 0.00 30 1022.0
20260510153440 17 325 3.2 3.2 0.00 0.00 0.00 30 1022.0
20260510152937 17 6 3.2 3.2 0.00 0.00 0.00 29 1021.8
20260510152435 17 6 1.6 1.6 0.00 0.00 0.00 29 1021.8
20260510151931 17 1 1.6 3.2 0.00 0.00 0.00 30 1021.6
20260510151428 17 23 1.6 3.2 0.00 0.00 0.00 31 1021.4
20260510150924 17 73 3.2 4.8 0.00 0.00 0.00 31 1021.3
20260510150420 17 65 3.2 3.2 0.00 0.00 0.00 30 1021.5
20260510145916 16 337 1.6 1.6 0.00 0.00 0.00 32 1021.5
20260510145413 16 90 1.6 3.2 0.00 0.00 0.00 31 1021.5
20260510144909 16 76 3.2 4.8 0.00 0.00 0.00 33 1021.4
20260510144406 15 353 0.0 1.6 0.00 0.00 0.00 33 1021.4
20260510143900 15 336 0.0 0.0 0.00 0.00 0.00 34 1021.6
20260510143357 15 355 0.0 0.0 0.00 0.00 0.00 34 1021.5
20260510142854 15 74 3.2 3.2 0.00 0.00 0.00 33 1021.6
20260510142350 15 19 1.6 1.6 0.00 0.00 0.00 35 1021.6
20260510141847 15 59 1.6 1.6 0.00 0.00 0.00 34 1021.9
20260510141345 15 345 0.0 0.0 0.00 0.00 0.00 34 1021.8
20260510140842 15 58 1.6 1.6 0.00 0.00 0.00 33 1021.6
20260510140338 15 292 3.2 4.8 0.00 0.00 0.00 33 1021.6
20260510135837 15 26 1.6 3.2 0.00 0.00 0.00 33 1021.6
20260510135332 15 6 0.0 0.0 0.00 0.00 0.00 35 1021.3
20260510134831 15 42 3.2 3.2 0.00 0.00 0.00 33 1021.4
20260510134327 15 8 1.6 1.6 0.00 0.00 0.00 36 1021.3
20260510133823 14 20 1.6 3.2 0.00 0.00 0.00 34 1021.4
20260510133319 14 335 0.0 1.6 0.00 0.00 0.00 36 1021.1
20260510132815 14 354 1.6 1.6 0.00 0.00 0.00 35 1021.4
20260510132314 14 27 0.0 1.6 0.00 0.00 0.00 35 1021.1
20260510131810 14 39 3.2 4.8 0.00 0.00 0.00 35 1021.2
20260510131308 14 335 1.6 1.6 0.00 0.00 0.00 35 1021.1
20260510130804 14 62 1.6 1.6 0.00 0.00 0.00 36 1021.1
20260510130301 14 280 1.6 1.6 0.00 0.00 0.00 35 1020.8
20260510125757 13 0 1.6 3.2 0.00 0.00 0.00 36 1020.9
20260510125253 13 10 1.6 1.6 0.00 0.00 0.00 36 1020.9
20260510124750 13 320 4.8 6.4 0.00 0.00 0.00 35 1020.5
20260510124248 13 348 0.0 1.6 0.00 0.00 0.00 35 1020.7
20260510123743 13 324 1.6 3.2 0.00 0.00 0.00 35 1020.4
20260510123239 13 78 1.6 3.2 0.00 0.00 0.00 35 1020.0
20260510122735 13 3 0.0 0.0 0.00 0.00 0.00 36 1020.0
20260510122232 13 10 3.2 3.2 0.00 0.00 0.00 35 1019.8
20260510121728 14 358 0.0 1.6 0.00 0.00 0.00 37 1020.1
20260510121226 14 304 1.6 1.6 0.00 0.00 0.00 36 1019.7
20260510120723 13 332 0.0 1.6 0.00 0.00 0.00 36 1019.5
20260510120219 13 4 0.0 0.0 0.00 0.00 0.00 38 1019.1
20260510115715 13 9 1.6 3.2 0.00 0.00 0.00 37 1019.2
20260510115214 13 193 3.2 4.8 0.00 0.00 0.00 37 1019.0
20260510114708 13 351 0.0 0.0 0.00 0.00 0.00 37 1019.2
20260510114206 13 354 0.0 0.0 0.00 0.00 0.00 37 1018.8
20260510113700 13 6 4.8 6.4 0.00 0.00 0.00 36 1018.9
20260510113158 13 20 0.0 1.6 0.00 0.00 0.00 36 1019.0
20260510112655 13 48 1.6 3.2 0.00 0.00 0.00 36 1018.6
20260510112152 14 2 1.6 3.2 0.00 0.00 0.00 37 1018.6
20260510111648 14 358 0.0 1.6 0.00 0.00 0.00 37 1018.3
20260510111144 14 321 1.6 1.6 0.00 0.00 0.00 37 1018.4
20260510110639 14 324 1.6 1.6 0.00 0.00 0.00 37 1018.6
20260510110137 14 11 1.6 1.6 0.00 0.00 0.00 38 1018.5
20260510105633 14 30 0.0 1.6 0.00 0.00 0.00 39 1018.6
20260510105132 14 30 0.0 1.6 0.00 0.00 0.00 39 1018.7
20260510104629 15 337 1.6 1.6 0.00 0.00 0.00 40 1018.3
20260510104126 15 34 0.0 1.6 0.00 0.00 0.00 40 1018.4
20260510103623 15 339 1.6 3.2 0.00 0.00 0.00 39 1018.3
20260510103118 15 35 3.2 3.2 0.00 0.00 0.00 37 1018.2
20260510102614 15 76 0.0 3.2 0.00 0.00 0.00 35 1018.0
20260510102110 15 45 1.6 1.6 0.00 0.00 0.00 34 1018.1
20260510101608 15 92 3.2 6.4 0.00 0.00 0.00 34 1018.0
20260510101106 15 354 0.0 0.0 0.00 0.00 0.00 35 1018.0
20260510100602 15 38 3.2 4.8 0.00 0.00 0.00 35 1017.8
20260510100100 15 15 0.0 1.6 0.00 0.00 0.00 36 1017.4
20260510095556 15 64 1.6 3.2 0.00 0.00 0.00 35 1017.3
20260510095056 15 15 1.6 3.2 0.00 0.00 0.00 37 1017.4
20260510094555 15 8 3.2 3.2 0.00 0.00 0.00 37 1017.5
20260510094051 15 56 1.6 3.2 0.00 0.00 0.00 37 1017.5
20260510093547 15 3 0.0 1.6 0.00 0.00 0.00 38 1017.6
20260510093044 15 47 1.6 1.6 0.00 0.00 0.00 39 1017.3
20260510092541 16 77 1.6 3.2 0.00 0.00 0.00 39 1017.3
20260510092041 16 16 4.8 6.4 0.00 0.00 0.00 40 1017.3
20260510091538 16 314 1.6 1.6 0.00 0.00 0.00 40 1017.2
20260510091034 16 0 3.2 4.8 0.00 0.00 0.00 39 1017.2
20260510090531 16 9 1.6 1.6 0.00 0.00 0.00 39 1017.3
20260510090027 16 30 0.0 1.6 0.00 0.00 0.00 41 1016.7
20260510085527 16 74 1.6 1.6 0.00 0.00 0.00 41 1016.9
20260510085023 16 22 1.6 3.2 0.00 0.00 0.00 41 1016.9
20260510084519 16 19 3.2 4.8 0.00 0.00 0.00 44 1016.7
20260510084016 16 39 0.0 1.6 0.00 0.00 0.00 45 1016.5
20260510083513 16 241 1.6 1.6 0.00 0.00 0.00 45 1016.4
20260510083009 16 48 3.2 4.8 0.00 0.00 0.00 47 1016.5
20260510082507 16 344 0.0 1.6 0.00 0.00 0.00 48 1016.4
20260510082006 16 26 1.6 1.6 0.00 0.00 0.00 49 1016.2
20260510081502 17 345 1.6 1.6 0.00 0.00 0.00 48 1016.2
20260510080958 17 32 0.0 1.6 0.00 0.00 0.00 49 1016.3
20260510080456 17 23 1.6 1.6 0.00 0.00 0.00 49 1016.1
20260510075954 17 358 0.0 1.6 0.00 0.00 0.00 50 1016.0
20260510075451 17 6 0.0 0.0 0.00 0.00 0.00 50 1015.5
20260510074948 17 357 0.0 0.0 0.00 0.00 0.00 49 1016.1
20260510074445 17 353 0.0 0.0 0.00 0.00 0.00 48 1016.0
20260510073941 17 349 1.6 1.6 0.00 0.00 0.00 46 1015.9
20260510073437 17 21 0.0 1.6 0.00 0.00 0.00 47 1015.9
20260510072933 17 350 0.0 0.0 0.00 0.00 0.00 46 1015.8
20260510072431 17 0 0.0 1.6 0.00 0.00 0.00 47 1015.8
20260510071926 17 29 1.6 3.2 0.00 0.00 0.00 49 1015.7
20260510071423 16 0 0.0 0.0 0.00 0.00 0.00 53 1015.6
20260510070921 16 331 1.6 1.6 0.00 0.00 0.00 53 1015.7
20260510070418 16 339 0.0 0.0 0.00 0.00 0.00 55 1015.4
20260510065913 16 339 0.0 0.0 0.00 0.00 0.00 54 1015.3
20260510065410 16 339 0.0 0.0 0.00 0.00 0.00 52 1015.4
20260510064906 17 339 0.0 0.0 0.00 0.00 0.00 51 1015.4
20260510064404 17 339 0.0 0.0 0.00 0.00 0.00 51 1015.5
20260510063900 17 339 0.0 0.0 0.00 0.00 0.00 51 1015.3
20260510063357 17 333 0.0 1.6 0.00 0.00 0.00 49 1015.2
20260510062854 18 343 0.0 1.6 0.00 0.00 0.00 48 1015.3
20260510062349 18 3 0.0 0.0 0.00 0.00 0.00 47 1014.8
20260510061844 18 59 1.6 1.6 0.00 0.00 0.00 46 1014.8
20260510061341 18 22 0.0 1.6 0.00 0.00 0.00 46 1014.9
20260510060837 19 312 0.0 1.6 0.00 0.00 0.00 45 1015.1
20260510060335 19 21 0.0 1.6 0.00 0.00 0.00 44 1015.1
20260510055832 19 39 0.0 0.0 0.00 0.00 0.00 44 1015.0
20260510055331 19 36 1.6 1.6 0.00 0.00 0.00 44 1014.9
20260510054830 19 1 0.0 0.0 0.00 0.00 0.00 43 1014.7
20260510054326 20 30 0.0 0.0 0.00 0.00 0.00 43 1014.8
20260510053821 20 19 1.6 1.6 0.00 0.00 0.00 43 1015.1
20260510053317 20 359 0.0 0.0 0.00 0.00 0.00 42 1015.2
20260510052814 20 7 1.6 1.6 0.00 0.00 0.00 41 1015.1
20260510052309 20 22 1.6 1.6 0.00 0.00 0.00 41 1014.7
20260510051805 20 5 0.0 1.6 0.00 0.00 0.00 41 1014.6
20260510051302 20 69 3.2 6.4 0.00 0.00 0.00 41 1014.9
20260510050800 20 33 1.6 3.2 0.00 0.00 0.00 41 1014.7
20260510050256 20 350 0.0 0.0 0.00 0.00 0.00 41 1014.4
20260510045753 20 357 1.6 1.6 0.00 0.03 0.03 41 1014.0
20260510045249 20 24 1.6 1.6 0.00 0.03 0.03 42 1013.7
20260510044747 20 2 3.2 3.2 0.00 0.03 0.03 42 1013.6
20260510044244 20 343 0.0 0.0 0.00 0.03 0.03 43 1013.4
20260510043740 20 45 0.0 1.6 0.00 0.03 0.03 44 1013.3
20260510043237 20 57 1.6 1.6 0.00 0.03 0.03 45 1013.0
20260510042734 20 7 0.0 1.6 0.00 0.03 0.03 45 1012.8
20260510042229 20 342 3.2 4.8 0.00 0.03 0.03 45 1012.7
20260510041726 20 343 0.0 0.0 0.00 0.03 0.03 45 1012.7
20260510041224 20 33 0.0 3.2 0.00 0.03 0.03 46 1012.8
20260510040720 20 7 0.0 1.6 0.00 0.03 0.03 45 1012.4
20260510040217 20 10 0.0 0.0 0.00 0.03 0.03 47 1012.4
20260510035713 20 8 0.0 0.0 0.00 0.03 0.03 47 1012.3
20260510035209 20 16 0.0 0.0 0.00 0.03 0.03 48 1012.5
20260510034705 20 13 0.0 0.0 0.00 0.03 0.03 50 1012.2
20260510034203 19 6 0.0 0.0 0.00 0.03 0.03 53 1012.4
20260510033658 19 317 0.0 0.0 0.00 0.03 0.03 54 1012.3
20260510033157 19 317 0.0 0.0 0.00 0.03 0.03 53 1012.3
20260510032652 19 317 0.0 0.0 0.00 0.03 0.03 53 1012.2
20260510032148 20 318 0.0 0.0 0.00 0.03 0.03 52 1012.4
20260510031643 20 317 0.0 0.0 0.00 0.03 0.03 52 1012.4
20260510031141 20 317 0.0 0.0 0.00 0.03 0.03 51 1012.3
20260510030640 20 317 0.0 0.0 0.00 0.03 0.03 52 1012.2
20260510030138 20 321 0.0 0.0 0.00 0.03 0.03 51 1012.2
20260510025635 20 316 1.6 1.6 0.00 0.03 0.03 51 1012.0
20260510025132 20 6 0.0 0.0 0.00 0.03 0.03 49 1012.1
20260510024629 20 8 0.0 0.0 0.00 0.03 0.03 49 1012.2
20260510024125 20 323 0.0 1.6 0.00 0.03 0.03 49 1012.3
20260510023622 20 327 0.0 0.0 0.00 0.03 0.03 48 1012.2
20260510023119 21 336 0.0 0.0 0.00 0.03 0.03 48 1011.5
20260510022619 21 336 0.0 0.0 0.00 0.03 0.03 46 1011.3
20260510022114 21 343 0.0 0.0 0.00 0.03 0.03 46 1011.2
20260510021610 21 328 0.0 0.0 0.00 0.03 0.03 45 1011.1
20260510021108 21 348 0.0 0.0 0.00 0.03 0.03 45 1011.0
20260510020607 21 333 1.6 1.6 0.00 0.03 0.03 45 1011.0
20260510015559 21 345 0.0 0.0 0.00 0.03 0.03 44 1010.9
20260510015055 21 353 1.6 1.6 0.00 0.03 0.03 43 1010.8
20260510014552 22 336 0.0 1.6 0.00 0.03 0.03 43 1010.6
20260510014049 22 11 3.2 3.2 0.00 0.03 0.03 42 1010.6
20260510013543 22 339 0.0 1.6 0.00 0.03 0.03 43 1010.6
20260510013040 22 38 3.2 4.8 0.00 0.03 0.03 42 1010.7
20260510012533 22 336 6.4 6.4 0.00 0.03 0.03 42 1010.3
20260510012031 22 338 1.6 1.6 0.00 0.03 0.03 43 1010.3
20260510011530 22 343 0.0 0.0 0.00 0.03 0.03 43 1010.3
20260510011026 22 332 1.6 1.6 0.00 0.03 0.03 42 1010.3
20260510010523 22 339 1.6 1.6 0.00 0.03 0.03 42 1010.2
20260510010020 22 338 1.6 1.6 0.00 0.03 0.03 41 1010.2
20260510005515 23 304 1.6 1.6 0.00 0.03 0.03 41 1009.8
20260510005013 23 342 0.0 0.0 0.00 0.03 0.03 41 1009.7
20260510004511 23 344 0.0 0.0 0.00 0.03 0.03 40 1009.6
20260510004008 23 338 0.0 0.0 0.00 0.03 0.03 40 1009.7
20260510003505 23 325 1.6 3.2 0.00 0.03 0.03 39 1009.6
20260510003000 23 356 0.0 1.6 0.00 0.03 0.03 39 1009.3
20260510002456 24 327 0.0 1.6 0.00 0.03 0.03 39 1009.3
20260510001953 24 342 1.6 1.6 0.00 0.03 0.03 38 1009.4
20260510001450 25 347 1.6 3.2 0.00 0.03 0.03 38 1009.4
20260510000948 25 347 4.8 6.4 0.00 0.03 0.03 37 1009.2
20260510000444 25 7 1.6 3.2 0.00 0.03 0.03 37 1009.3
20260509235940 25 341 4.8 6.4 0.00 0.03 0.03 36 1009.2
20260509235437 25 295 1.6 3.2 0.00 0.03 0.03 36 1009.2
20260509234933 25 298 4.8 6.4 0.00 0.03 0.03 35 1009.0
20260509234430 25 347 1.6 3.2 0.00 0.03 0.03 34 1009.1
20260509233928 26 313 4.8 4.8 0.00 0.03 0.03 33 1008.9
20260509233426 26 336 1.6 1.6 0.00 0.03 0.03 32 1008.9
20260509232921 26 316 1.6 1.6 0.00 0.03 0.03 31 1008.4
20260509232420 26 333 1.6 3.2 0.00 0.03 0.03 30 1008.4
20260509231915 26 346 3.2 4.8 0.00 0.03 0.03 32 1008.6
20260509231412 26 328 1.6 1.6 0.00 0.03 0.03 31 1008.5